Volver al catálogo

LAGEOS 2 AKM

MAGE 1S

ActivoMEO
NORAD 22197·ROCKET BODY·🇮🇹 Italy

Lanzado Oct 22, 1992 desde Cape Canaveral Space Force Station

Loading…

Próximos Pases (próximas 24 horas)

TLE

ActualizadoSource: Space-Track

Época: Sep 14, 2026, 05:41 UTC

1 22197U 92070E   26257.23685232 -.00000009  00000-0  00000-0 0  9992
2 22197  52.6396 206.7725 0137864 229.8789 128.9619  6.47398971803738

Sigue LAGEOS 2 AKM en tiempo real con AllMySat

Download on the App Store